TimeCDT,TemperatureF,Dew PointF,Humidity,Sea Level PressureIn,VisibilityMPH,Wind Direction,Wind SpeedMPH,Gust SpeedMPH,PrecipitationIn,Events,Conditions,WindDirDegrees,DateUTC
12:52 AM,59.0,45.0,60,30.21,10.0,SSE,13.8,-,N/A,,Clear,150,2013-05-25 05:52:00
1:52 AM,59.0,44.1,58,30.20,10.0,SSE,15.0,-,N/A,,Clear,160,2013-05-25 06:52:00
2:52 AM,57.9,44.1,60,30.19,10.0,SSE,13.8,-,N/A,,Clear,160,2013-05-25 07:52:00
3:52 AM,57.0,44.1,62,30.19,10.0,SSE,15.0,-,N/A,,Clear,160,2013-05-25 08:52:00
4:52 AM,55.9,44.1,64,30.20,10.0,SSE,13.8,-,N/A,,Clear,160,2013-05-25 09:52:00
5:52 AM,55.9,45.0,67,30.20,10.0,SSE,10.4,-,N/A,,Clear,150,2013-05-25 10:52:00
6:52 AM,57.0,46.0,67,30.23,10.0,SSE,13.8,-,N/A,,Mostly Cloudy,160,2013-05-25 11:52:00
7:52 AM,59.0,46.9,64,30.23,10.0,SSE,11.5,-,0.00,,Mostly Cloudy,160,2013-05-25 12:52:00
8:05 AM,59.0,48.0,67,30.24,10.0,SSE,13.8,-,N/A,,Mostly Cloudy,150,2013-05-25 13:05:00
8:28 AM,60.1,48.0,64,30.23,10.0,SSE,13.8,-,N/A,,Overcast,150,2013-05-25 13:28:00
8:52 AM,60.1,48.9,67,30.21,10.0,SSE,15.0,-,N/A,,Mostly Cloudy,160,2013-05-25 13:52:00
9:52 AM,66.0,52.0,60,30.19,10.0,SSE,13.8,-,N/A,,Clear,160,2013-05-25 14:52:00
10:52 AM,69.1,53.1,57,30.19,10.0,South,17.3,25.3,N/A,,Clear,180,2013-05-25 15:52:00
11:52 AM,71.1,57.0,61,30.19,10.0,South,9.2,-,N/A,,Mostly Cloudy,190,2013-05-25 16:52:00
12:52 PM,75.0,61.0,62,30.19,10.0,South,10.4,-,N/A,,Partly Cloudy,180,2013-05-25 17:52:00
1:52 PM,75.0,61.0,62,30.18,10.0,South,11.5,-,N/A,,Clear,180,2013-05-25 18:52:00
2:52 PM,77.0,62.1,60,30.16,10.0,SSE,11.5,-,N/A,,Clear,160,2013-05-25 19:52:00
3:52 PM,79.0,63.0,58,30.14,10.0,South,13.8,20.7,N/A,,Clear,190,2013-05-25 20:52:00
4:52 PM,79.0,63.0,58,30.11,10.0,South,10.4,-,N/A,,Clear,180,2013-05-25 21:52:00
5:52 PM,80.1,62.1,54,30.09,10.0,South,11.5,-,N/A,,Clear,170,2013-05-25 22:52:00
6:52 PM,78.1,63.0,60,30.08,10.0,SSE,10.4,-,N/A,,Clear,150,2013-05-25 23:52:00
7:52 PM,75.0,62.1,64,30.06,10.0,SSE,11.5,-,N/A,,Clear,150,2013-05-26 00:52:00
8:52 PM,73.0,62.1,68,30.06,10.0,SSE,11.5,-,N/A,,Clear,160,2013-05-26 01:52:00
9:52 PM,72.0,62.1,71,30.06,10.0,SSE,11.5,-,N/A,,Clear,150,2013-05-26 02:52:00
10:52 PM,70.0,61.0,73,30.10,10.0,SSE,11.5,-,N/A,,Clear,160,2013-05-26 03:52:00
11:52 PM,69.1,61.0,75,30.10,10.0,SSE,9.2,-,N/A,,Clear,160,2013-05-26 04:52:00